Content
SEND FEEDBACK

Daily
Averages
Monthly
Summary
United States of America

CHADRON, NEBRASKA


Home > North America > United States > Nebraska
Elevation: 3295 feet     Latitude: 42 50N     Longitude: 103 06W

WEATHER
 
SELECT A DAY
Number of Records: 174,265;   Date Range: 1/1/95 - 12/18/14
 
SHARE

PRINT THIS DATA

[ ← Previous Day ]
WEATHER ALMANAC - JANUARY 23, 2013
[ Next Day → ]
[ °C ]   °F
Weather ElementAverageHighLow
Temperature21.8 °F25 °F (10:53 am)19 °F (6:53 pm)
Dewpoint15.4 °F17.1 °F (9:53 am)12.9 °F (2:53 am)
Humidity76.2 %85 % (7:53 pm)62 % (2:53 am)
Barometer30.32 in30.42 in (5:53 pm)30.14 in (2:53 am)
Wind Speed6.4 mph16.1 mph (11:53 pm)
Wind Gust20.7 mph (11:53 pm)
Weather ElementAverage
Visibility9.1 mi
Wind DirectionESE (102.6 °)

Weather ElementTotal
Precipitation---
Heating Degree Days43 (Base 65)
Averaged from 23 records on January 23, 2013
WEATHER CONDITIONS BREAKOUT
WIND DIRECTION BREAKOUT
WEATHER BY HOUR - JANUARY 23, 2013
[ °C ]   °F
Local TimeTemperatureDewpointHumidityBarometerVisibilityWind DirectionWind SpeedGust SpeedPrecipitationEventsConditions
1:53 AM21.9 °F14.0 °F72 %30.15 in10.0 miSW (230°)3.5 mphClear
2:53 AM24.1 °F12.9 °F62 %30.14 in10.0 miSW (230°)5.8 mphClear
3:53 AM21.9 °F15.1 °F75 %30.15 in10.0 miWSW (250°)3.5 mphClear
4:53 AM21.9 °F15.1 °F75 %30.18 in10.0 miCalmClear
5:53 AM19.9 °F15.1 °F81 %30.24 in10.0 miCalmClear
6:53 AM19.9 °F15.1 °F81 %30.27 in10.0 miNNW (340°)3.5 mphClear
7:53 AM19.9 °F15.1 °F81 %30.30 in10.0 miNNW (340°)3.5 mphClear
8:53 AM21.0 °F16.0 °F81 %30.33 in9.0 miNNE (30°)5.8 mphClear
9:53 AM23.0 °F17.1 °F78 %30.38 in9.0 miNE (40°)8.1 mphClear
10:53 AM25.0 °F17.1 °F72 %30.38 in9.0 miNE (50°)9.2 mphClear
11:53 AM25.0 °F17.1 °F72 %30.39 in8.0 miNorth (10°)9.2 mphClear
12:53 PM24.1 °F16.0 °F71 %30.38 in8.0 miNNE (30°)6.9 mphClear
1:53 PM25.0 °F17.1 °F72 %30.35 in8.0 miENE (60°)9.2 mphClear
2:53 PM24.1 °F16.0 °F71 %30.37 in8.0 miNE (40°)6.9 mphClear
3:53 PM21.9 °F15.1 °F75 %30.39 in9.0 miNE (50°)9.2 mphClear
4:53 PM19.9 °F14.0 °F78 %30.40 in9.0 miNE (40°)9.2 mphClear
5:53 PM19.9 °F12.9 °F74 %30.42 in10.0 miNNE (30°)8.1 mphClear
6:53 PM19.0 °F12.9 °F77 %30.41 in9.0 miNNE (30°)8.1 mphClear
7:53 PM19.0 °F15.1 °F85 %30.39 in9.0 miENE (60°)4.6 mphClear
8:53 PM19.9 °F15.1 °F81 %30.37 in9.0 miEast (100°)5.8 mphClear
9:53 PM19.9 °F15.1 °F81 %30.35 in8.0 miEast (90°)5.8 mphClear
10:53 PM21.9 °F17.1 °F82 %30.32 in9.0 miESE (120°)5.8 mphClear
11:53 PM24.1 °F17.1 °F75 %30.27 in9.0 miSouth (190°)16.1 mph20.7 mphClear
Hourly data recorded from KCDR, located miles away from Chadron, Nebraska







STORIES FROM OUR PARTNERS